Weather History for North Padre Island, TX

Change the Weather History Date:

Saturday, December 29, 2012

  Actual Average Record
Temperature  
Mean Temperature 56 °F -  
Max Temperature 60 °F - - ()
Min Temperature 51 °F - - ()
Degree Days  
Heating Degree Days 10    
Growing Degree Days 6 (Base 50)    
Moisture  
Dew Point 42 °F    
Average Humidity 63    
Maximum Humidity 77    
Minimum Humidity 51    
Precipitation  
Precipitation 0.00 in - - ()
Sea Level Pressure  
Sea Level Pressure 30.33 in    
Wind  
Wind Speed 13 mph (North)    
Max Wind Speed 16 mph    
Max Gust Speed 26 mph    
Visibility 10 miles    
Events      
T = Trace of Precipitation, MM = Missing Value Source: NWS Daily Summary

Daily Weather History Graph

Daily Weather History Graph

Search for Another Location

Airport:

Trip Planner

Search our weather history database for the weather conditions in past years. The results will help you decide how hot, cold, wet, or windy it might be!

Date:

Astronomy

Dec. 29, 2012 Rise Set
Actual Time 7:15 AM CST 5:44 PM CST
Civil Twilight 6:50 AM CST 6:09 PM CST
Nautical Twilight 6:21 AM CST 6:38 PM CST
Astronomical Twilight 5:53 AM CST 7:07 PM CST
Moon 7:09 PM CST (12/29) 7:58 AM CST (12/29)
Length of Visible Light 11h 19m
Length of Day
10h 28m
Full, 98% of the Moon is Illuminated
Dec 29
Full
Jan 4
Last Quarter
Jan 11
New
Jan 18
First Quarter
Jan 26
Full

Hourly Weather History & Observations

Time (CST) Temp. Dew Point Humidity Pressure Visibility Wind Dir Wind Speed Gust Speed Precip Events Conditions
12:15 AM 60.8 °F 46.4 °F 59% 30.14 in 10.0 mi North 16.1 mph - N/A   Scattered Clouds
12:35 AM 59.0 °F 48.2 °F 67% 30.14 in 10.0 mi North 13.8 mph 24.2 mph N/A   Scattered Clouds
12:55 AM 57.2 °F 46.4 °F 67% 30.16 in 10.0 mi North 13.8 mph 21.9 mph N/A   Scattered Clouds
1:15 AM 57.2 °F 46.4 °F 67% 30.17 in 10.0 mi North 13.8 mph 25.3 mph N/A   Unknown
1:35 AM 55.4 °F 44.6 °F 67% 30.17 in 10.0 mi NNW 13.8 mph 19.6 mph N/A   Unknown
1:55 AM 55.4 °F 44.6 °F 67% 30.17 in 10.0 mi North 12.7 mph 23.0 mph N/A   Partly Cloudy
2:15 AM 53.6 °F 44.6 °F 72% 30.18 in 10.0 mi North 13.8 mph 26.5 mph N/A   Partly Cloudy
2:35 AM 53.6 °F 44.6 °F 72% 30.18 in 10.0 mi North 15.0 mph 21.9 mph N/A   Partly Cloudy
2:55 AM 53.6 °F 44.6 °F 72% 30.20 in 10.0 mi North 15.0 mph - N/A   Partly Cloudy
3:15 AM 53.6 °F 44.6 °F 72% 30.21 in 10.0 mi North 11.5 mph 21.9 mph N/A   Scattered Clouds
3:35 AM 53.6 °F 44.6 °F 72% 30.21 in 10.0 mi NNW 13.8 mph 20.7 mph N/A   Scattered Clouds
3:55 AM 53.6 °F 44.6 °F 72% 30.21 in 10.0 mi NNW 13.8 mph - N/A   Partly Cloudy
4:15 AM 53.6 °F 44.6 °F 72% 30.23 in 9.0 mi NNW 12.7 mph 19.6 mph N/A   Partly Cloudy
4:35 AM 53.6 °F 44.6 °F 72% 30.23 in 10.0 mi North 13.8 mph 23.0 mph N/A   Scattered Clouds
4:55 AM 53.6 °F 46.4 °F 77% 30.23 in 10.0 mi North 10.4 mph 20.7 mph N/A   Mostly Cloudy
5:15 AM 53.6 °F 46.4 °F 77% 30.25 in 10.0 mi North 13.8 mph 20.7 mph N/A   Overcast
5:35 AM 53.6 °F 44.6 °F 72% 30.26 in 10.0 mi North 13.8 mph 21.9 mph N/A   Mostly Cloudy
5:55 AM 53.6 °F 46.4 °F 77% 30.27 in 10.0 mi NNW 13.8 mph 20.7 mph N/A   Mostly Cloudy
6:15 AM 53.6 °F 46.4 °F 77% 30.29 in 10.0 mi North 12.7 mph 21.9 mph N/A   Overcast
6:35 AM 53.6 °F 44.6 °F 72% 30.30 in 10.0 mi North 11.5 mph 23.0 mph N/A   Overcast
6:55 AM 51.8 °F 44.6 °F 76% 30.30 in 10.0 mi North 15.0 mph 23.0 mph N/A   Overcast
7:15 AM 51.8 °F 44.6 °F 76% 30.31 in - NNW 11.5 mph 20.7 mph N/A   Unknown
7:35 AM 51.8 °F 42.8 °F 71% 30.33 in 10.0 mi North 15.0 mph 24.2 mph N/A   Unknown
7:55 AM 51.8 °F 42.8 °F 71% 30.33 in 9.0 mi North 15.0 mph 23.0 mph N/A   Mostly Cloudy
8:15 AM 51.8 °F 42.8 °F 71% 30.35 in 10.0 mi NNW 12.7 mph 19.6 mph N/A   Mostly Cloudy
8:35 AM 51.8 °F 42.8 °F 71% 30.35 in 9.0 mi North 13.8 mph 20.7 mph N/A   Mostly Cloudy
8:55 AM 51.8 °F 42.8 °F 71% 30.37 in 10.0 mi North 11.5 mph 17.3 mph N/A   Mostly Cloudy
9:15 AM 51.8 °F 41.0 °F 67% 30.37 in 10.0 mi North 16.1 mph - N/A   Scattered Clouds
9:35 AM 51.8 °F 41.0 °F 67% 30.38 in 10.0 mi North 11.5 mph 18.4 mph N/A   Partly Cloudy
9:55 AM 53.6 °F 42.8 °F 67% 30.39 in 10.0 mi North 11.5 mph 19.6 mph N/A   Partly Cloudy
10:15 AM 53.6 °F 42.8 °F 67% 30.39 in 10.0 mi North 12.7 mph 20.7 mph N/A   Scattered Clouds
10:35 AM 53.6 °F 42.8 °F 67% 30.40 in 10.0 mi North 11.5 mph 23.0 mph N/A   Partly Cloudy
10:55 AM 53.6 °F 42.8 °F 67% 30.41 in 10.0 mi North 9.2 mph 20.7 mph N/A   Partly Cloudy
11:15 AM 53.6 °F 42.8 °F 67% 30.41 in 10.0 mi North 12.7 mph 20.7 mph N/A   Unknown
11:35 AM 53.6 °F 41.0 °F 62% 30.40 in 10.0 mi North 13.8 mph 23.0 mph N/A   Clear
12:15 PM 55.4 °F 41.0 °F 58% 30.39 in 10.0 mi North 11.5 mph 19.6 mph N/A   Clear
12:35 PM 55.4 °F 41.0 °F 58% 30.38 in 10.0 mi North 16.1 mph 25.3 mph N/A   Clear
12:55 PM 55.4 °F 39.2 °F 54% 30.36 in 10.0 mi North 12.7 mph 21.9 mph N/A   Clear
1:15 PM 55.4 °F 41.0 °F 58% 30.36 in 10.0 mi North 16.1 mph 23.0 mph N/A   Clear
1:35 PM 55.4 °F 41.0 °F 58% 30.35 in 10.0 mi North 16.1 mph 23.0 mph N/A   Clear
1:55 PM 55.4 °F 39.2 °F 54% 30.35 in 10.0 mi NNE 11.5 mph 23.0 mph N/A   Clear
2:15 PM 55.4 °F 41.0 °F 58% 30.35 in 10.0 mi North 16.1 mph - N/A   Clear
2:35 PM 55.4 °F 41.0 °F 58% 30.35 in 9.0 mi North 16.1 mph - N/A   Clear
2:55 PM 53.6 °F 41.0 °F 62% 30.36 in 10.0 mi North 13.8 mph 23.0 mph N/A   Clear
3:15 PM 53.6 °F 41.0 °F 62% 30.35 in 10.0 mi North 11.5 mph 23.0 mph N/A   Clear
3:35 PM 55.4 °F 41.0 °F 58% 30.36 in 10.0 mi North 11.5 mph 19.6 mph N/A   Partly Cloudy
4:15 PM 53.6 °F 39.2 °F 58% 30.36 in 10.0 mi North 9.2 mph 18.4 mph N/A   Clear
4:35 PM 53.6 °F 39.2 °F 58% 30.36 in 10.0 mi North 10.4 mph 18.4 mph N/A   Clear
4:55 PM 53.6 °F 39.2 °F 58% 30.36 in 10.0 mi North 11.5 mph 24.2 mph N/A   Clear
5:15 PM 55.4 °F 41.0 °F 58% 30.37 in 10.0 mi North 8.1 mph 19.6 mph N/A   Clear
5:35 PM 55.4 °F 39.2 °F 54% 30.37 in 10.0 mi North 11.5 mph 18.4 mph N/A   Clear
5:55 PM 55.4 °F 39.2 °F 54% 30.37 in 10.0 mi North 10.4 mph 17.3 mph N/A   Clear
6:15 PM 55.4 °F 39.2 °F 54% 30.39 in 10.0 mi North 12.7 mph 19.6 mph N/A   Clear
6:35 PM 55.4 °F 39.2 °F 54% 30.39 in 10.0 mi North 10.4 mph 16.1 mph N/A   Clear
6:55 PM 55.4 °F 39.2 °F 54% 30.39 in 10.0 mi North 9.2 mph 16.1 mph N/A   Clear
7:15 PM 55.4 °F 39.2 °F 54% 30.40 in 10.0 mi North 10.4 mph 17.3 mph N/A   Clear
7:35 PM 55.4 °F 39.2 °F 54% 30.40 in 10.0 mi North 10.4 mph - N/A   Clear
7:55 PM 57.2 °F 39.2 °F 51% 30.41 in 10.0 mi North 10.4 mph 16.1 mph N/A   Clear
8:15 PM 57.2 °F 39.2 °F 51% 30.41 in 10.0 mi North 8.1 mph 17.3 mph N/A   Clear
8:35 PM 57.2 °F 39.2 °F 51% 30.41 in 10.0 mi North 10.4 mph - N/A   Clear
8:55 PM 57.2 °F 39.2 °F 51% 30.42 in 10.0 mi North 8.1 mph 15.0 mph N/A   Clear
9:15 PM 57.2 °F 39.2 °F 51% 30.42 in 10.0 mi North 8.1 mph 18.4 mph N/A   Clear
9:35 PM 57.2 °F 39.2 °F 51% 30.42 in 10.0 mi NNE 6.9 mph 15.0 mph N/A   Clear
9:55 PM 57.2 °F 41.0 °F 55% 30.42 in 10.0 mi North 8.1 mph 13.8 mph N/A   Clear
10:15 PM 57.2 °F 41.0 °F 55% 30.42 in 10.0 mi North 8.1 mph 16.1 mph N/A   Partly Cloudy
10:35 PM 57.2 °F 41.0 °F 55% 30.41 in 10.0 mi NNE 8.1 mph 17.3 mph N/A   Partly Cloudy
10:55 PM 57.2 °F 41.0 °F 55% 30.41 in 10.0 mi NNE 6.9 mph 20.7 mph N/A   Clear
11:15 PM 57.2 °F 42.8 °F 59% 30.41 in 10.0 mi NNE 6.9 mph 13.8 mph N/A   Mostly Cloudy
11:35 PM 57.2 °F 41.0 °F 55% 30.40 in 10.0 mi NNE 6.9 mph 16.1 mph N/A   Mostly Cloudy